Location: Monrovia
(34.7865°N, 86.7139°W)
Time: 15:00:49
(UTC+00:00)

Cosmos 1378 Rocket - Pass Details

Date: 14 July 2020
Orbit: 602 x 626 km, 82.5° (Epoch: 13 August)

Event Time Altitude Azimuth Distance (km) Brightness Sun altitude
Rises 08:47:49 0° 352° (N) 2,899 7.6 -20.0°
Reaches altitude 10° 08:50:02 10° 351° (N) 1,992 6.6 -19.7°
Maximum altitude 08:54:27 80° 266° (W) 636 3.4 -19.0°
Enters shadow 08:56:32 31° 181° (S) 1,094 4.4 -18.7°
